[[{"header":{"parameterUnit":"m.s-1","parameterCategory":1,"la1":30.2991,"la2":30.254,"lo1":-89.0895,"lo2":-89.0444,"dy":0.0017,"dx":0.0017,"nx":28,"ny":28,"refTime":"2025-04-08T21:00:00:Z","depth":0,"parameterNumber":2,"parameterNumberName":"U-component_of_WINDS"},"data":[0,0,0,0,0,0,0,0,0,0,0,0,0,0,0,0,0,0,0,0,0,0,0,0,0,0,0,0,0,0,0,0,0,0,0,0,0,0,0,0,0,0,0,0,0,0,0,0,0,0,0,0,0,0,0,0,0,0,1.8834,1.8834,0,1.8859,1.886,1.886,1.8843,1.8842,1.8842,1.8841,1.8869,1.887,1.8871,0,0,0,0,0,0,0,0,0,0,0,0,0,1.8773,1.8774,1.8834,1.8834,1.8834,1.8859,1.886,1.886,1.8843,1.8842,1.8841,1.884,1.8868,1.887,1.8872,0,0,0,0,0,0,0,0,0,0,0,0,0,1.8799,1.8774,1.8833,1.8829,1.8829,1.8859,1.886,1.886,1.8843,1.8842,1.8841,1.884,1.8867,1.887,1.8872,1.8909,0,0,1.8878,1.8879,0,0,0,0,0,0,0,0,1.8797,1.8801,1.8829,1.8829,1.8829,1.8847,1.8848,1.8876,1.8844,1.8838,1.8841,1.8839,1.8862,1.8865,1.8872,1.891,1.8911,1.8879,1.888,1.8881,1.8882,0,0,0,0,0,0,0,1.8796,1.88,1.8844,1.883,1.883,1.8826,1.8829,1.8854,1.8856,1.8838,1.8837,1.884,1.8862,1.887,1.8873,1.8912,1.8879,1.8881,1.8882,1.8883,1.8983,1.8984,0,0,0,0,0,0,1.8794,1.8799,1.8843,1.8845,1.881,1.8828,1.8831,1.8842,1.8856,1.8857,1.8841,1.8839,1.8867,1.887,1.8874,1.8919,1.8881,1.8883,1.8884,1.8981,1.8983,1.8984,0,0,0,0,0,0,1.8793,1.8798,1.8842,1.8821,1.8827,1.8831,1.8843,1.8843,1.8851,1.8858,1.8859,1.8849,1.8866,1.8871,1.89,1.8919,1.8884,1.8886,1.898,1.8982,1.8984,1.9008,0,0,0,0,0,0,1.8791,1.8798,1.8811,1.8822,1.8828,1.8867,1.8845,1.8845,1.8855,1.8853,1.8866,1.8867,1.8866,1.8897,1.8903,1.8922,1.8888,1.8978,1.8981,1.8983,1.9006,1.9011,1.9015,0,0,0,0,0,1.8789,1.8817,1.8812,1.8817,1.8844,1.8868,1.8872,1.887,1.8857,1.8871,1.8875,1.8866,1.8917,1.89,1.8906,1.8926,1.8977,1.898,1.8983,1.9003,1.901,1.9015,0,0,0,0,0,0,1.8808,1.8818,1.8812,1.8844,1.8856,1.8865,1.8883,1.8876,1.8892,1.8889,1.8887,1.889,1.8921,1.8927,1.8909,1.8964,1.8945,1.8949,1.8958,1.8964,1.8969,1.8967,1.8889,0,0,0,0,0,1.8816,1.8834,1.8842,1.887,1.8876,1.8878,1.8889,1.8886,1.8898,1.8903,1.891,1.8922,1.8941,1.8953,1.8971,1.9007,1.901,1.9024,1.9028,1.9032,1.9036,1.9057,1.9063,1.8994,1.8994,1.8994,0,0,1.8832,1.884,1.8852,1.8874,1.8882,1.8902,1.8882,1.8904,1.8918,1.8906,1.8934,1.894,1.8954,1.8988,1.9003,1.8993,1.9056,1.9036,1.9039,1.9041,1.9061,1.9067,1.9073,1.8996,1.8996,1.8996,0,0,1.8872,1.888,1.8904,1.8913,1.8926,1.8928,1.8934,1.8946,1.8949,1.8978,1.8969,1.8988,1.902,1.903,1.9039,1.9086,1.9079,1.9092,1.9116,1.9137,1.9142,1.9147,1.9164,1.917,1.9096,1.9096,1.9096,0,1.8891,1.892,1.8917,1.8939,1.895,1.894,1.8965,1.8975,1.8993,1.9001,1.8991,1.9032,1.904,1.9076,1.9088,1.9096,1.9104,1.909,1.9141,1.9146,1.9151,1.9167,1.9173,1.9097,1.9097,1.9097,1.9097,0,1.8943,1.8963,1.8981,1.8999,1.9011,1.9035,1.9037,1.9051,1.9048,1.9052,1.9082,1.9092,1.9112,1.9121,1.9118,1.9158,1.9152,1.9142,1.9122,1.9159,1.9174,1.918,1.91,1.9099,1.9099,1.9098,0,0,1.8993,1.9011,1.9018,1.9026,1.9041,1.9057,1.9081,1.9101,1.9113,1.9127,1.9147,1.9176,1.9167,1.9178,1.9177,1.9195,1.9232,1.9183,1.9183,1.9191,1.9277,1.9284,1.9291,1.9228,1.9229,1.923,1.9276,0,1.9034,1.9075,1.9075,1.9113,1.9132,1.9124,1.9146,1.9158,1.9163,1.918,1.9186,1.9206,1.9193,1.92,1.9217,1.9224,1.9249,1.922,1.9247,1.9248,1.9243,1.9299,1.9306,1.9349,1.9282,1.9283,1.9283,0,1.9086,1.9102,1.9142,1.9156,1.9164,1.9182,1.9201,1.9218,1.9233,1.9235,1.9248,1.9245,1.9271,1.9252,1.9288,1.9269,1.9281,1.9286,1.9287,1.9289,1.9267,1.9302,1.9362,1.9369,1.9293,1.9292,1.9291,0,1.9119,1.9151,1.9179,1.9187,1.9203,1.9217,1.9224,1.9238,1.925,1.9267,1.9275,1.9295,1.9306,1.9322,1.9325,1.9311,1.9362,1.9343,1.9365,1.9365,1.9375,1.9374,1.9438,1.9383,1.9383,1.9383,1.9383,0,1.9164,1.9189,1.9194,1.9211,1.924,1.924,1.9269,1.9275,1.9288,1.9307,1.9303,1.9321,1.9324,1.9344,1.9346,1.9377,1.9382,1.9385,1.9385,1.9385,1.9385,1.9392,1.9389,1.9385,1.9385,1.9384,1.9384,0,1.9205,1.9209,1.924,1.9254,1.9258,1.9278,1.929,1.9307,1.9313,1.9337,1.9343,1.9351,1.9375,1.938,1.9407,1.9409,1.9445,1.9443,1.944,1.9439,1.9461,1.9459,1.9531,1.9541,1.9481,1.9481,1.9482,0,1.9233,1.9252,1.9268,1.9281,1.9289,1.9309,1.9322,1.9324,1.9338,1.9357,1.9373,1.9395,1.9413,1.9451,1.946,1.9482,1.948,1.9504,1.9483,1.9483,1.948,1.9479,1.9481,1.9507,1.9508,1.9508,1.9509,0,1.9283,1.9284,1.9302,1.9322,1.9337,1.9353,1.9368,1.9379,1.9383,1.9399,1.9423,1.9437,1.9466,1.9489,1.9511,1.952,1.9516,1.9516,1.9522,1.9521,1.9519,1.9521,1.945,1.9514,1.9513,1.9513,1.9512,1.9512,1.9318,1.9335,1.9349,1.937,1.9382,1.9396,1.9413,1.9421,1.9441,1.9464,1.9464,1.949,1.9507,1.9536,1.9547,1.9568,1.956,1.9569,1.9572,1.9574,1.9576,1.9516,1.9572,1.9572,1.9572,1.9572,1.9572,0,1.9367,1.9376,1.9396,1.9417,1.9434,1.9428,1.9445,1.946,1.9483,1.9498,1.9516,1.9544,1.9567,1.9579,1.9602,1.9617,1.9616,1.9623,1.9622,1.9624,1.9581,1.9573,1.9624,1.9624,1.9624,1.9624,1.9624,1.9624,1.9394,1.9423,1.9427,1.9462,1.9471,1.9496,1.9507,1.9521,1.9533,1.9564,1.9583,1.9591,1.9605,1.963,1.9651,1.9654,1.9663,1.9671,1.9673,1.9632,1.9627,1.9622,1.9615,1.9673,1.9673,1.9714,1.9715,1.9715]},{"header":{"parameterUnit":"m.s-1","parameterCategory":1,"la1":30.2991,"la2":30.254,"lo1":-89.0895,"lo2":-89.0444,"dy":0.0017,"dx":0.0017,"nx":28,"ny":28,"refTime":"2025-04-08T21:00:00:Z","depth":0,"parameterNumber":3,"parameterNumberName":"V-component_of_WINDS"},"data":[0,0,0,0,0,0,0,0,0,0,0,0,0,0,0,0,0,0,0,0,0,0,0,0,0,0,0,0,0,0,0,0,0,0,0,0,0,0,0,0,0,0,0,0,0,0,0,0,0,0,0,0,0,0,0,0,0,0,-4.0306,-4.0307,0,-4.0436,-4.0437,-4.0439,-4.0448,-4.0447,-4.0445,-4.0444,-4.0577,-4.0582,-4.0586,0,0,0,0,0,0,0,0,0,0,0,0,0,-4.0063,-4.0067,-4.0306,-4.0307,-4.0309,-4.0436,-4.0437,-4.0439,-4.0448,-4.0446,-4.0445,-4.0443,-4.0575,-4.0581,-4.0587,0,0,0,0,0,0,0,0,0,0,0,0,0,-4.0178,-4.0069,-4.0305,-4.0329,-4.0332,-4.0435,-4.0438,-4.044,-4.0449,-4.0446,-4.0444,-4.0442,-4.0573,-4.058,-4.0588,-4.0676,0,0,-4.061,-4.0613,0,0,0,0,0,0,0,0,-4.0172,-4.0187,-4.0324,-4.0327,-4.0331,-4.0424,-4.0401,-4.0519,-4.0449,-4.0404,-4.0444,-4.0441,-4.0528,-4.0538,-4.0568,-4.0683,-4.0688,-4.0611,-4.0615,-4.0618,-4.062,0,0,0,0,0,0,0,-4.0164,-4.0182,-4.0357,-4.0326,-4.033,-4.0332,-4.0346,-4.0423,-4.0477,-4.0408,-4.0409,-4.0424,-4.0529,-4.0561,-4.0571,-4.069,-4.061,-4.0617,-4.0622,-4.0624,-4.0881,-4.0884,0,0,0,0,0,0,-4.0151,-4.0175,-4.0353,-4.0361,-4.0245,-4.0338,-4.0354,-4.0396,-4.0476,-4.0486,-4.0426,-4.0424,-4.0549,-4.0562,-4.0576,-4.0683,-4.0618,-4.0625,-4.0629,-4.0879,-4.0882,-4.0885,0,0,0,0,0,0,-4.0146,-4.0167,-4.0348,-4.0268,-4.0291,-4.0345,-4.0392,-4.04,-4.0431,-4.0489,-4.0499,-4.0448,-4.0548,-4.0565,-4.0651,-4.0687,-4.0628,-4.0635,-4.0876,-4.088,-4.0883,-4.0898,0,0,0,0,0,0,-4.0139,-4.0165,-4.02,-4.0269,-4.0296,-4.0421,-4.0394,-4.0404,-4.0444,-4.0443,-4.0513,-4.0522,-4.0548,-4.064,-4.0658,-4.0696,-4.0641,-4.0873,-4.0878,-4.0882,-4.0895,-4.0902,-4.0908,0,0,0,0,0,-4.013,-4.02,-4.0202,-4.0223,-4.034,-4.0424,-4.0439,-4.0466,-4.0447,-4.0482,-4.0519,-4.052,-4.0681,-4.0648,-4.0669,-4.071,-4.0871,-4.0876,-4.0882,-4.0892,-4.0901,-4.0908,0,0,0,0,0,0,-4.0135,-4.021,-4.0213,-4.0307,-4.0358,-4.0425,-4.047,-4.0475,-4.0534,-4.0531,-4.0562,-4.0578,-4.0662,-4.0695,-4.0657,-4.0799,-4.0773,-4.0783,-4.0774,-4.0783,-4.079,-4.0779,-4.0647,0,0,0,0,0,-4.0147,-4.0208,-4.027,-4.0347,-4.0373,-4.0417,-4.0454,-4.0471,-4.0526,-4.0548,-4.0591,-4.0644,-4.0706,-4.0747,-4.0807,-4.09,-4.0914,-4.0938,-4.0945,-4.095,-4.0958,-4.1006,-4.1017,-4.0902,-4.0902,-4.0902,0,0,-4.0172,-4.022,-4.0257,-4.0349,-4.0391,-4.0453,-4.0435,-4.0502,-4.0548,-4.0558,-4.0641,-4.0674,-4.0735,-4.0824,-4.0865,-4.0854,-4.0993,-4.0957,-4.0961,-4.0966,-4.1013,-4.1024,-4.1034,-4.0906,-4.0905,-4.0905,0,0,-4.0249,-4.0293,-4.036,-4.0402,-4.0466,-4.0494,-4.051,-4.0576,-4.0598,-4.0682,-4.0689,-4.0744,-4.0851,-4.0894,-4.0929,-4.102,-4.1022,-4.1039,-4.1073,-4.112,-4.1129,-4.1137,-4.1167,-4.1178,-4.1046,-4.1046,-4.1046,0,-4.0272,-4.0366,-4.0394,-4.046,-4.0499,-4.051,-4.0578,-4.0618,-4.0698,-4.0724,-4.0711,-4.0843,-4.0886,-4.0983,-4.1004,-4.1034,-4.1052,-4.103,-4.1126,-4.1134,-4.1142,-4.1171,-4.1183,-4.1048,-4.1048,-4.1047,-4.1047,0,-4.039,-4.0455,-4.0502,-4.0578,-4.0622,-4.0689,-4.0726,-4.0768,-4.078,-4.0809,-4.0892,-4.0943,-4.1013,-4.1038,-4.1051,-4.1136,-4.1127,-4.1119,-4.1094,-4.1154,-4.1182,-4.1193,-4.105,-4.1049,-4.1049,-4.1048,0,0,-4.0474,-4.0563,-4.058,-4.0613,-4.0684,-4.0734,-4.08,-4.0868,-4.0902,-4.0957,-4.1011,-4.1101,-4.1093,-4.1134,-4.1151,-4.1193,-4.1258,-4.118,-4.1182,-4.1191,-4.1352,-4.1356,-4.1369,-4.126,-4.1263,-4.1265,-4.1346,0,-4.0558,-4.0676,-4.0701,-4.0803,-4.0862,-4.0872,-4.0929,-4.0978,-4.1007,-4.106,-4.1092,-4.1154,-4.1141,-4.1165,-4.1206,-4.1241,-4.129,-4.1236,-4.131,-4.1313,-4.1293,-4.1383,-4.1389,-4.1463,-4.1357,-4.1359,-4.1361,0,-4.0671,-4.0727,-4.0833,-4.0893,-4.0919,-4.097,-4.1033,-4.1084,-4.1139,-4.1157,-4.12,-4.1213,-4.1281,-4.1253,-4.1345,-4.1308,-4.134,-4.1361,-4.1365,-4.1372,-4.1339,-4.1391,-4.1488,-4.1498,-4.1378,-4.1377,-4.1376,0,-4.0718,-4.0821,-4.0897,-4.0926,-4.0998,-4.1033,-4.1065,-4.1117,-4.1155,-4.121,-4.1235,-4.1297,-4.1331,-4.1378,-4.1406,-4.1384,-4.1496,-4.1471,-4.1511,-4.151,-4.1533,-4.1531,-4.1635,-4.1557,-4.1557,-4.1556,-4.1556,0,-4.0808,-4.0872,-4.0919,-4.0966,-4.1037,-4.1066,-4.1136,-4.1168,-4.1214,-4.1266,-4.1279,-4.1328,-4.1363,-4.1416,-4.1439,-4.1511,-4.1527,-4.1542,-4.1547,-4.154,-4.1537,-4.156,-4.1555,-4.1559,-4.1559,-4.1558,-4.1558,0,-4.0873,-4.0907,-4.0991,-4.1051,-4.1068,-4.1118,-4.117,-4.1215,-4.1243,-4.1309,-4.1326,-4.1371,-4.1434,-4.1467,-4.1546,-4.1561,-4.1641,-4.1644,-4.1622,-4.1624,-4.1661,-4.1656,-4.1782,-4.1799,-4.1711,-4.1712,-4.1712,0,-4.0927,-4.0976,-4.1042,-4.1077,-4.111,-4.1167,-4.1206,-4.1235,-4.1275,-4.1339,-4.1376,-4.1439,-4.1492,-4.1592,-4.163,-4.169,-4.1694,-4.1733,-4.1703,-4.1693,-4.1692,-4.1687,-4.1691,-4.1738,-4.1739,-4.174,-4.174,0,-4.1018,-4.1032,-4.1087,-4.1147,-4.1192,-4.1242,-4.129,-4.1319,-4.1356,-4.1399,-4.1463,-4.1504,-4.1583,-4.1646,-4.1708,-4.174,-4.1746,-4.175,-4.1762,-4.1754,-4.1739,-4.1745,-4.1635,-4.1747,-4.1746,-4.1746,-4.1745,-4.1745,-4.1078,-4.1121,-4.1173,-4.1234,-4.1273,-4.1317,-4.1362,-4.1395,-4.1449,-4.1516,-4.153,-4.1597,-4.1648,-4.1732,-4.1766,-4.1818,-4.181,-4.1828,-4.1832,-4.1835,-4.1836,-4.1731,-4.183,-4.183,-4.1829,-4.1829,-4.1829,0,-4.1168,-4.1202,-4.1257,-4.1323,-4.137,-4.1371,-4.1424,-4.1463,-4.1522,-4.1569,-4.1619,-4.1692,-4.1752,-4.1794,-4.1855,-4.1888,-4.1892,-4.1903,-4.19,-4.1907,-4.1841,-4.1823,-4.1898,-4.1898,-4.1898,-4.1898,-4.1898,-4.1898,-4.122,-4.1293,-4.1312,-4.1403,-4.1437,-4.1502,-4.1532,-4.1572,-4.161,-4.1689,-4.1739,-4.1766,-4.1811,-4.1875,-4.1929,-4.194,-4.1961,-4.1971,-4.1981,-4.1919,-4.1912,-4.1904,-4.1888,-4.1975,-4.1976,-4.2043,-4.2043,-4.2044]}]]